www.pogodaiklimat.ru

Погода и климат >> Архив погоды >> Россия >> Пензенская область >> Пенза


АРХИВ ПОГОДЫ в Пензе

Время (UTC), дата Ветер
(напр.,м/с)
 
Видим.   Явления Облачность Т
(С)
Тd
(С)
f
(%)
Тe
(С)
Тes
(С)
Комфортность P
(гПа)
Po
(гПа)
Тmin
(С)
Tmax
(С)
R
(мм)
R24
(мм)
S
(см)
15 10.07 СЗ 3 10 км 3/3 1000 м
[Cu hum]
+26.4 +12.4 42 +28 +29 жарко 1011.5 992.0 +26.7
18 10.07 СЗ 1 10 км 3/0
[Ac As]
+22.8 +14.4 59 +26 +26 жарко 1012.6 992.8
21 10.07 З 2 10 км ясно +17.3 +13.8 80 +18 +18 по сезону 1013.4 993.2
00 11.07 З 1 10 км ясно +15.3 +12.9 86 +16 +16 по сезону 1013.6 993.2
03 11.07 З 2 10 км ясно +16.3 +13.8 85 +16 +18 прохладно 1013.9 993.6 +14.3
06 11.07 СЗ 4 10 км 9/8 720 м
[Cb cap Ci fib]
+22.0 +15.7 67 +26 +27 душно 1013.6 993.7
09 11.07 С 3 10 км 9/9 960 м
[Cb cap]
+24.4 +15.0 56 +27 +29 жарко 1012.9 993.2
12 11.07 С 3 10 км 8/8 840 м
[Cb cap Cs]
+25.7 +14.2 49 +28 +30 жарко 1012.2 992.6
15 11.07 СВ 2 10 км 9/6 1000 м
[Cb cap Ac cuf]
+26.0 +14.3 48 +28 +29 жарко 1011.6 992.0 +26.9
18 11.07 СВ 1 10 км 8/0
[Ac cuf Cs]
+23.3 +15.1 60 +27 +27 душно 1012.2 992.4
21 11.07 В 1 10 км 3/0
[Ac trans]
+19.1 +16.7 86 +22 +22 комфорт 1012.2 992.2
00 12.07 З 1 10 км 9/0
[Ac As]
+16.9 +16.4 97 +18 +18 тепло 1012.5 992.3
03 12.07 Ю 1 10 км 9/0
[Cs]
+18.0 +17.1 94 +19 +21 по сезону 1012.7 992.6 +15.6
06 12.07 ЮВ 1 10 км 9/6 1080 м
[Sc Ac trans]
+22.0 +17.4 75 +26 +29 душно 1012.1 992.3
09 12.07 В 2 10 км {ливн. осадки} 8/5 720 м
[Cb cap Ac trans]
+24.6 +16.3 60 +28 +33 душно 1011.1 991.4
12 12.07 СВ 1 10 км {ливн. осадки} 9/8 700 м
[Cb cap Ac trans]
+25.4 +15.3 54 +28 +30 жарко 1010.6 991.0
15 12.07 СВ 1 10 км 9/8 1000 м
[Sc diur, vesp Ac trans]
+25.5 +14.2 50 +28 +28 жарко 1010.0 990.4 +26.4 0.0
18 12.07 В 1 10 км 6/0
[Ac trans Cc]
+23.3 +14.9 59 +27 +27 душно 1010.4 990.7
21 12.07 СВ 1 10 км 8/0
[Ac As]
+18.4 +15.6 84 +20 +20 тепло 1010.7 990.6
00 13.07 Ю 1 10 км 6/0
[Ac trans]
+16.1 +14.5 90 +17 +17 по сезону 1010.9 990.7
03 13.07 З 1 10 км 4/0
[Ci sp]
+17.1 +15.2 89 +18 +20 по сезону 1011.1 990.9 +14.6
06 13.07 СЗ 1 10 км 3/3 1000 м
[Cu hum]
+23.7 +14.7 57 +26 +35 жарко 1010.3 990.6
09 13.07 СЗ 1 10 км 8/8 840 м
[Cb cap]
+25.4 +13.1 46 +27 +31 жарко 1009.6 990.0
12 13.07 СЗ 2 10 км 4/4 1000 м
[Cb cap]
+27.7 +11.8 37 +29 +35 жарко 1008.6 989.2
15 13.07 С 2 10 км 4/3 600 м
[Cb cap Ac cuf]
+27.3 +12.9 41 +29 +30 жарко 1008.0 988.6 +28.1
18 13.07 Ю 1 10 км 3/0
[Ac cuf]
+22.2 +15.3 65 +26 +26 душно 1009.1 989.3
21 13.07 З 1 10 км ясно +17.5 +14.6 83 +19 +19 по сезону 1009.5 989.4
00 14.07 С 1 10 км ясно +15.6 +15.1 97 +16 +16 по сезону 1009.5 989.3
03 14.07 штиль 0 10 км ясно +19.0 +15.1 78 +20 +23 тепло 1009.4 989.4 +14.1
06 14.07 В 1 10 км 3/3 1000 м
[Cu hum]
+24.3 +14.9 56 +27 +36 жарко 1008.9 989.3
09 14.07 ЮВ 2 10 км 6/6 960 м
[Cb calv]
+26.8 +13.7 44 +29 +35 жарко 1008.2 988.7
12 14.07 СВ 2 10 км 8/8 930 м
[Cb cap]
+28.6 +11.4 34 +29 +31 жарко 1007.2 987.8
15 14.07 В 1 10 км 4/4 1000 м
[Cu med, cong]
+28.5 +11.9 36 +30 +31 жарко 1006.2 986.8 +28.9
18 14.07 В 1 10 км 3/0
[Ac trans]
+24.7 +14.3 52 +27 +27 жарко 1007.4 987.9
21 14.07 штиль 0 10 км ясно +18.7 +15.0 79 +20 +20 тепло 1007.8 987.9
00 15.07 В 1 10 км ясно +17.6 +15.8 89 +19 +19 тепло 1007.9 987.8
03 15.07 В 2 10 км ясно +19.0 +15.8 82 +21 +23 комфорт 1008.3 988.3 +17.1
06 15.07 ЮВ 2 10 км ясно +25.9 +17.0 58 +30 +40 душно 1007.7 988.2
09 15.07 ЮВ 2 10 км 8/8 570 м
[Cu hum]
+28.7 +15.6 45 +32 +35 душно 1006.9 987.6
12 15.07 ЮВ 3 10 км 6/3 600 м
[Cu hum Ac cuf Cs]
+30.1 +13.0 35 +31 +36 жарко 1006.2 987.0
15 15.07 В 2 10 км 4/0
[Ac cuf Cc]
+29.7 +13.4 37 +31 +33 жарко 1005.5 986.3 +30.4
18 15.07 В 2 10 км 3/0
[Ac cast]
+25.8 +14.9 51 +29 +29 душно 1006.6 987.1
21 15.07 В 1 10 км ясно +22.5 +15.9 66 +27 +27 душно 1006.8 987.1
00 16.07 штиль 0 10 км 8/0
[Ac lent]
+19.9 +16.3 80 +22 +22 комфорт 1007.7 987.8
03 16.07 В 1 10 км 10/0
[Ac As]
+20.7 +16.8 78 +25 +26 комфорт 1007.3 987.5 +19.8
06 16.07 В 3 10 км 9/4 1000 м
[Sc Ac As]
+24.9 +18.0 66 +29 +31 душно 1006.4 986.9
09 16.07 ЮВ 4 10 км 8/3 600 м
[Cu med, cong Ac As]
+31.7 +14.3 35 +33 +37 жарко 1005.3 986.2
12 16.07 СВ 2
{22}
10 км в посл. час гроза {ливн. осадки} 9/8 720 м
[Cb calv Ac trans]
+27.1 +18.3 59 +32 +33 очень
душно
1004.9 985.5
15 16.07 В 2 10 км 10/5 600 м
[Cb cap Cs]
+29.8 +17.0 46 +33 +34 душно 1003.8 984.6 +32.2 10
18 16.07 В 2 10 км 9/8 840 м
[Cb cap Cc]
+25.4 +16.1 56 +29 +29 душно 1004.5 985.0
21 16.07 В 2 10 км 8/8 1000 м
[Cb cap]
+23.1 +15.8 63 +27 +27 душно 1004.1 984.5
00 17.07 В 2 10 км 10/0
[Ac As Cs]
+21.6 +15.8 70 +25 +25 комфорт 1004.2 984.5
03 17.07 В 3 10 км в посл. час дождь 10/8 660 м
[Sc As op]
+20.1 +18.2 89 +24 +24 комфорт 1004.1 984.3 +19.8 0.3
06 17.07 В 2 10 км в посл. час дождь 10/0
[Ac As]
+21.2 +17.9 81 +25 +28 комфорт 1002.6 982.9
09 17.07 В 5 4000 м слабый дождь 10/8 1110 м
[Frnb As op]
+20.4 +17.9 86 +24 +24 комфорт 1001.7 982.0
12 17.07 В 5
{10}
4000 м слабый дождь 10/10 500 м
[Frnb Ns]
+19.0 +18.4 96 +20 +20 холодно 1000.3 980.5

 

Местоположение метеостанции Пенза (Пензенская область, Россия): широта 53.12 долгота 45.02 высота над уровнем моря 172 м.

В архиве по умолчанию представлена погода в Пензе за последнюю неделю. Архивные данные за месяц целиком и за предыдущие месяцы, начиная с января 2011 года, Вы можете получить, выбрав интересующий диапазон дат из раскрывающегося списка и нажав кнопку "Ввод!".


*Определитесь, кто Вы:
робот инопланетянин человек

Внимание! Время в таблицах - всемирное. Для получения местного времени необходимо прибавить поправку, которая в Пензе равна 3 ч.

Смотрите также архив погоды в соседних городах и на ближайших метеорологических станциях:

Погода в Кондоле (Пензенская область, Россия) (34 км)
Погода в Городище (Пензенская область, Россия) (47 км)
Погода в Колышлее (Пензенская область, Россия) (54 км)
Погода в Каменке (Пензенская область, Россия) (66 км)
Погода в Инсаре (Мордовия, Россия) (94 км)
Погода в Радищево (Пензенская область, Россия) (95 км)
Погода в Петровске (Саратовская область, Россия) (97 км)
Погода в Белинском (Пензенская область, Россия) (110 км)
Погода в Саранске (Мордовия, Россия) (113 км)
Погода в Пачелме (Пензенская область, Россия) (116 км)

Пояснения к столбцам:

Ветер - указаны скорость ветра в м/с - средняя за 10 мин, порывы в срок и между сроками (в фигурных скобках) и направление, откуда дует ветер: С - северный, СВ - северо-восточный, В - восточный, ЮВ - юго-восточный, Ю - южный, ЮЗ - юго-западный, З - западный, СЗ - северо-западный.
Видимость - горизонтальная дальность видимости в метрах или километрах. При видимости от 1 до 10 км при отсутствии осадков обычно наблюдается дымка, при ухудшении видимости до 1 км и менее - туман. В сухую погоду видимость может ухудшаться дымом, пылью или мглою.
Явления - указаны атмосферные явления, наблюдавшиеся в срок или в последний час перед сроком; фигурными скобками обозначены явления, наблюдавшиеся между сроками (за 1-3 часа до срока); квадратными скобками обозначены град или гололедные отложения с указанием их диаметра в мм.
Облачность - указаны через наклонную черту общая и нижняя облачность в баллах и высота нижней границы облаков в метрах; квадратными скобками обозначены формы облаков: Ci - перистые, Cs - перисто-слоистые, Cc - перисто-кучевые, Ac - высококучевые, As - высокослоистые, Sc - слоисто-кучевые, Ns - слоисто-дождевые, Cu - кучевые, Cb - кучево-дождевые. Подробнее классификацию облаков см. в Атласе облаков (PDF).
T - Температура воздуха - температура, измеренная на высоте 2 м над землей.
Td - Температура точки росы - температура, при понижении до которой содержащийся в воздухе водяной пар достигнет насыщения.
f - Относительная влажность воздуха - влажноcть воздуха, измеренная на высоте 2 м над землей.
Te - Эффективная температура - температура, которую ощущает одетый по сезону человек в тени. Характеристика душности погоды. При расчете учитывается влияние влажности воздуха и скорости ветра на теплоощущения человека.
Tes - Эффективная температура на солнце - температура, которую ощущает человек, с поправкой на солнечный нагрев. Характеристика знойности погоды. Зависит от высоты солнца над горизонтом, облачности и скорости ветра. Ночью, в пасмурную погоду, а также при ветре 12 м/с и более поправка равна нулю.
P - Атмосферное давление - приведенное к уровню моря атмосферное давление.
Po - Атмосферное давление - измеренное на уровне метеостанции атмосферное давление.
Tmin - Минимальная температура - минимум температуры воздуха на высоте 2 м над землей.
Tmax - Максимальная температура - максимум температуры воздуха на высоте 2 м над землей.
R - Количество осадков - Количество выпавших осадков за период времени, мм. При наведении курсора мыши на число - период времени, за который выпало указанное количество осадков.
R24 - Количество осадков - Количество выпавших осадков за 24 часа, мм.
S - Снежный покров - Высота снежного покрова, см. При наведении курсора мыши на число - состояние снежного покрова и степень покрытия местности в баллах.